Meadow Lake Airport
CYLJ : now visible

Airfield :











YOU CAN JOIN US ON...

 
LOGIN :

Register | Disclaimer

   EN    FR    IT 

 









Legend :    VFR   Marginal VFR   IFR   Intensive IFR   Very Intensive IFR
Visi :
Ceiling :
>= 8 km
>= 3000ft
5 to 8 km
1000 to 3000 ft
1500m to 5 km
500 to 1000 ft
800 to 1500m
200 to 500 ft
< 800m
< 200 ft
Symbols :   Thunderstorms  Fog  Heavy snow  Heavy precipitations  Wind > 20 kt






- Airport Elevation : 1576 ft
- IATA code : YLJ


CYLJ - Meadow Lake

CURRENT METAR :
  • 121600Z 36004KT 330V090 15SM FEW029 FEW120 12/04 A3014 RMK CU1AC1 CU TR SLP223

EXPIRED METARs :
  • 121500Z 03004KT 360V090 15SM FEW120 09/04 A3015 RMK AC2 SLP226
  • 121400Z 35003KT 15SM FEW120 07/04 A3016 RMK AC1 SLP227

TAF N/A
CZWG FIR / North America



MET'MAP, your aeronautical weather chart ! - Copyright ORBIFLY December 2007 - Disclaimer

ORBIFLY MET'MAP TEAM :

Programming & Development : Alexandra Zaïnal
Concept & original design : Baudouin d'Aumeries
Assistance for programming : Marc-Olivier Méhu
Technical & hardware support : Manuel Goepfert

Contact : metmap@orbifly.com




SOURCES & CREDITS :

   NOAA       Earth
Advisory